Location: York
(31.8935°S, 116.7682°E)
Time: 16:59:46
(UTC+08:00)

SR - All Passes

Search period start: 25 September 2022 00:00
Search period end: 05 October 2022 00:00
Orbit: 573 x 879 km, 66.7° (Epoch: 24 September)

Date Brightness Start Highest point End Pass type
(mag) Time Alt. Az. Time Alt. Az. Time Alt. Az.
25 Sep - 10:21:26 10° NNW 10:25:44 68° ENE 10:29:57 10° SSE daylight
25 Sep - 19:06:49 10° SSE 19:10:02 17° SE 19:13:22 10° E visible
25 Sep - 20:47:24 10° SW 20:52:10 49° WNW 20:57:17 10° N visible
26 Sep - 09:32:08 10° NNE 09:35:43 25° ENE 09:39:14 10° SE daylight
26 Sep - 11:14:19 10° WNW 11:17:35 21° WSW 11:20:50 10° S daylight
26 Sep - 19:57:07 10° SSW 20:02:02 73° ESE 20:07:21 10° NNE visible
27 Sep - 10:23:04 10° NW 10:27:16 51° WSW 10:31:25 10° SSE daylight
27 Sep - 19:07:23 10° S 19:11:47 33° ESE 19:16:30 10° ENE visible
27 Sep - 20:49:37 10° SW 20:53:37 24° WNW 20:57:52 10° NNW visible
28 Sep - 09:32:52 10° NNW 09:37:07 59° ENE 09:41:18 10° SSE daylight
28 Sep - 11:18:57 10° WSW 11:19:26 10° SW 11:19:55 10° SW daylight
28 Sep - 18:18:25 10° SSE 18:21:22 16° SE 18:24:27 10° E daylight
28 Sep - 19:58:43 10° SW 20:03:34 55° WNW 20:08:48 10° N visible
29 Sep - 08:43:44 10° NNE 08:47:07 22° ENE 08:50:26 10° ESE daylight
29 Sep - 10:25:29 10° WNW 10:28:55 23° WSW 10:32:22 10° S daylight
29 Sep - 19:08:31 10° SSW 19:13:25 66° ESE 19:18:44 10° NE visible
29 Sep - 20:53:15 10° W 20:54:59 12° WNW 20:56:46 10° NW visible
30 Sep - 09:34:24 10° NW 09:38:37 58° WSW 09:42:49 10° SSE daylight
30 Sep - 18:18:50 10° S 18:23:09 30° ESE 18:27:45 10° ENE daylight
30 Sep - 20:00:49 10° SW 20:05:02 27° WNW 20:09:31 10° NNW visible
01 Oct - 08:44:19 10° N 08:48:30 51° ENE 08:52:37 10° SE daylight
01 Oct - 10:29:18 10° WSW 10:30:44 11° SW 10:32:11 10° SSW daylight
01 Oct - 17:30:02 10° SSE 17:32:42 14° SE 17:35:28 10° E daylight
01 Oct - 19:10:03 10° SSW 19:14:58 62° WNW 19:20:17 10° NNE visible
02 Oct - 07:55:22 10° NNE 07:58:30 20° ENE 08:01:36 10° ESE daylight
02 Oct - 09:36:39 10° WNW 09:40:15 26° WSW 09:43:51 10° S daylight
02 Oct - 18:19:54 10° SSW 18:24:48 59° ESE 18:30:06 10° NE daylight
02 Oct - 20:03:59 10° WSW 20:06:25 13° WNW 20:08:54 10° NW visible
03 Oct - 08:45:43 10° NNW 08:49:58 66° WSW 08:54:12 10° SSE daylight
03 Oct - 17:30:18 10° S 17:34:30 27° ESE 17:38:58 10° ENE daylight
03 Oct - 19:12:01 10° SW 19:16:26 30° WNW 19:21:07 10° N visible
04 Oct - 07:55:46 10° N 07:59:52 45° ENE 08:03:55 10° SE daylight
04 Oct - 09:40:04 10° W 09:42:02 13° SW 09:44:00 10° SSW daylight
04 Oct - 16:41:42 10° SSE 16:44:01 13° SE 16:46:24 10° E daylight
04 Oct - 18:21:22 10° SSW 18:26:20 69° WNW 18:31:44 10° NNE daylight
